TimeMST,TemperatureF,Dew PointF,Humidity,Sea Level PressureIn,VisibilityMPH,Wind Direction,Wind SpeedMPH,Gust SpeedMPH,PrecipitationIn,Events,Conditions,WindDirDegrees,DateUTC
12:15 AM,38.3,17.8,44,30.38,10.0,Calm,Calm,-,N/A,,Clear,0,2012-12-05 07:15:00
12:55 AM,38.3,15.4,39,30.37,10.0,Calm,Calm,-,N/A,,Clear,0,2012-12-05 07:55:00
1:15 AM,38.5,16.0,40,30.36,10.0,Calm,Calm,-,N/A,,Clear,0,2012-12-05 08:15:00
1:35 AM,39.4,17.4,41,30.35,10.0,Calm,Calm,-,N/A,,Clear,0,2012-12-05 08:35:00
1:55 AM,38.5,17.4,43,30.35,10.0,Calm,Calm,-,N/A,,Clear,0,2012-12-05 08:55:00
2:15 AM,40.6,15.8,37,30.35,10.0,North,3.5,-,N/A,,Clear,350,2012-12-05 09:15:00
2:35 AM,40.3,15.8,37,30.34,10.0,Calm,Calm,-,N/A,,Clear,0,2012-12-05 09:35:00
2:55 AM,39.2,16.2,39,30.34,10.0,Calm,Calm,-,N/A,,Clear,0,2012-12-05 09:55:00
3:15 AM,39.4,16.2,39,30.33,10.0,Calm,Calm,-,N/A,,Clear,0,2012-12-05 10:15:00
3:35 AM,42.1,13.8,32,30.33,10.0,NW,4.6,-,N/A,,Clear,320,2012-12-05 10:35:00
3:55 AM,43.0,13.6,30,30.33,10.0,NNW,4.6,-,N/A,,Clear,330,2012-12-05 10:55:00
4:15 AM,42.1,14.0,32,30.33,10.0,North,5.8,-,N/A,,Clear,360,2012-12-05 11:15:00
4:35 AM,41.5,14.0,33,30.33,10.0,Calm,Calm,-,N/A,,Clear,0,2012-12-05 11:35:00
4:55 AM,38.1,15.8,40,30.34,10.0,Calm,Calm,-,N/A,,Clear,0,2012-12-05 11:55:00
5:15 AM,37.8,14.9,39,30.34,10.0,Calm,Calm,-,N/A,,Clear,0,2012-12-05 12:15:00
5:35 AM,36.9,15.1,41,30.34,10.0,Calm,Calm,-,N/A,,Clear,0,2012-12-05 12:35:00
5:55 AM,36.1,15.4,43,30.34,10.0,Calm,Calm,-,N/A,,Clear,0,2012-12-05 12:55:00
7:35 AM,40.1,15.4,37,30.35,10.0,Calm,Calm,-,N/A,,Clear,0,2012-12-05 14:35:00
7:55 AM,40.8,15.1,35,30.35,10.0,Calm,Calm,-,N/A,,Clear,0,2012-12-05 14:55:00
8:15 AM,41.5,14.9,34,30.35,10.0,Calm,Calm,-,N/A,,Clear,0,2012-12-05 15:15:00
8:35 AM,42.8,15.6,33,30.35,10.0,Calm,Calm,-,N/A,,Clear,0,2012-12-05 15:35:00
8:55 AM,41.9,15.3,34,30.34,10.0,Calm,Calm,-,N/A,,Clear,0,2012-12-05 15:55:00
9:15 AM,43.7,16.2,33,30.34,10.0,Calm,Calm,-,N/A,,Clear,0,2012-12-05 16:15:00
9:35 AM,44.6,16.2,32,30.33,10.0,SSE,3.5,-,N/A,,Clear,160,2012-12-05 16:35:00
9:55 AM,46.0,16.0,30,30.33,10.0,Calm,Calm,-,N/A,,Clear,0,2012-12-05 16:55:00
10:15 AM,47.8,16.0,28,30.32,10.0,Calm,Calm,-,N/A,,Clear,0,2012-12-05 17:15:00
10:35 AM,47.3,16.7,30,30.31,10.0,NE,3.5,-,N/A,,Clear,50,2012-12-05 17:35:00
10:55 AM,48.4,16.7,28,30.31,10.0,East,4.6,-,N/A,,Clear,80,2012-12-05 17:55:00
11:15 AM,50.0,17.1,27,30.29,10.0,ENE,3.5,-,N/A,,Clear,70,2012-12-05 18:15:00
11:35 AM,51.6,16.9,25,30.28,10.0,SE,4.6,-,N/A,,Clear,130,2012-12-05 18:35:00
11:55 AM,52.3,16.9,25,30.26,10.0,SE,8.1,-,N/A,,Clear,140,2012-12-05 18:55:00
12:15 PM,53.2,16.7,24,30.25,10.0,SSE,8.1,-,N/A,,Clear,160,2012-12-05 19:15:00
12:35 PM,53.8,16.7,23,30.23,10.0,SSE,5.8,-,N/A,,Clear,160,2012-12-05 19:35:00
1:15 PM,53.8,16.7,23,30.22,10.0,SE,6.9,-,N/A,,Clear,130,2012-12-05 20:15:00
1:35 PM,54.0,16.7,23,30.20,10.0,SE,8.1,-,N/A,,Clear,130,2012-12-05 20:35:00
1:55 PM,54.1,16.5,23,30.20,10.0,ESE,3.5,-,N/A,,Clear,120,2012-12-05 20:55:00
2:15 PM,54.7,16.5,22,30.19,10.0,SE,5.8,-,N/A,,Clear,140,2012-12-05 21:15:00
2:35 PM,55.4,16.3,22,30.18,10.0,SE,4.6,-,N/A,,Clear,130,2012-12-05 21:35:00
2:55 PM,54.7,15.8,22,30.17,10.0,SSE,5.8,-,N/A,,Clear,160,2012-12-05 21:55:00
3:15 PM,54.5,15.4,21,30.17,10.0,South,5.8,-,N/A,,Clear,170,2012-12-05 22:15:00
3:35 PM,53.2,15.6,23,30.17,10.0,SSE,5.8,-,N/A,,Clear,160,2012-12-05 22:35:00
3:55 PM,53.1,16.2,23,30.16,10.0,SSE,6.9,-,N/A,,Clear,160,2012-12-05 22:55:00
4:15 PM,52.5,16.3,24,30.17,10.0,Calm,Calm,-,N/A,,Clear,0,2012-12-05 23:15:00
4:35 PM,52.3,16.5,24,30.17,10.0,Calm,Calm,-,N/A,,Clear,0,2012-12-05 23:35:00
4:55 PM,51.8,17.4,26,30.16,10.0,Calm,Calm,-,N/A,,Clear,0,2012-12-05 23:55:00
5:15 PM,51.4,17.6,26,30.15,10.0,SW,3.5,-,N/A,,Clear,230,2012-12-06 00:15:00
5:35 PM,50.5,18.1,28,30.15,10.0,Calm,Calm,-,N/A,,Clear,0,2012-12-06 00:35:00
5:55 PM,52.2,18.3,26,30.15,10.0,SW,4.6,-,N/A,,Clear,230,2012-12-06 00:55:00
6:15 PM,52.3,18.1,26,30.15,10.0,SW,5.8,-,N/A,,Clear,230,2012-12-06 01:15:00
6:35 PM,54.5,18.1,24,30.15,10.0,SW,6.9,-,N/A,,Clear,220,2012-12-06 01:35:00
6:55 PM,54.7,18.3,24,30.15,10.0,SW,5.8,-,N/A,,Clear,220,2012-12-06 01:55:00
7:15 PM,54.0,18.3,25,30.15,10.0,SW,5.8,-,N/A,,Clear,230,2012-12-06 02:15:00
7:35 PM,53.2,18.1,25,30.15,10.0,SW,4.6,-,N/A,,Clear,220,2012-12-06 02:35:00